[[{"header":{"parameterUnit":"m.s-1","parameterCategory":1,"la1":30.2991,"la2":30.254,"lo1":-89.0895,"lo2":-89.0444,"dy":0.0017,"dx":0.0017,"nx":28,"ny":28,"refTime":"2025-07-20T09:00:00:Z","depth":0,"parameterNumber":2,"parameterNumberName":"U-component_of_WINDS"},"data":[0,0,0,0,0,0,0,0,0,0,0,0,0,0,0,0,0,0,0,0,0,0,0,0,0,0,0,0,0,0,0,0,0,0,0,0,0,0,0,0,0,0,0,0,0,0,0,0,0,0,0,0,0,0,0,0,0,0,4.6874,4.6875,0,4.7048,4.705,4.7052,4.6998,4.6994,4.6991,4.6987,4.7169,4.7177,4.7185,0,0,0,0,0,0,0,0,0,0,0,0,0,4.6493,4.65,4.6873,4.6876,4.6878,4.7048,4.705,4.7053,4.6999,4.6994,4.699,4.6985,4.7166,4.7176,4.7186,0,0,0,0,0,0,0,0,0,0,0,0,0,4.6662,4.6502,4.6873,4.6871,4.6873,4.7048,4.7051,4.7053,4.7,4.6994,4.6988,4.6983,4.7163,4.7175,4.7187,4.7375,0,0,4.7225,4.723,0,0,0,0,0,0,0,0,4.6652,4.6676,4.6869,4.6872,4.6874,4.6996,4.6983,4.7161,4.7001,4.6952,4.6987,4.698,4.7116,4.7132,4.7177,4.7384,4.7391,4.7226,4.7234,4.7239,4.7243,0,0,0,0,0,0,0,4.6641,4.6668,4.6943,4.6872,4.6875,4.6862,4.688,4.7016,4.7063,4.6955,4.6952,4.6973,4.7116,4.7165,4.7181,4.7394,4.7226,4.7237,4.7244,4.7249,4.776,4.7766,0,0,0,0,0,0,4.6627,4.6659,4.6937,4.6948,4.6747,4.6873,4.6893,4.6962,4.7061,4.7071,4.6978,4.697,4.7146,4.7166,4.7187,4.7411,4.7239,4.7251,4.7258,4.7754,4.7762,4.7768,0,0,0,0,0,0,4.6619,4.6653,4.693,4.6802,4.6837,4.6885,4.6964,4.6969,4.7017,4.7078,4.7086,4.7019,4.7143,4.7169,4.7328,4.7416,4.7256,4.7267,4.7747,4.7756,4.7765,4.7862,0,0,0,0,0,0,4.6609,4.665,4.6722,4.6804,4.6844,4.7068,4.6969,4.6976,4.7039,4.703,4.7119,4.7128,4.714,4.7309,4.734,4.7431,4.7277,4.7739,4.7751,4.7762,4.7851,4.7873,4.7892,0,0,0,0,0,4.6595,4.6744,4.6726,4.676,4.6935,4.7074,4.7096,4.7106,4.7046,4.7119,4.7157,4.7126,4.7402,4.7326,4.736,4.7456,4.7734,4.7748,4.7761,4.7842,4.7869,4.7892,0,0,0,0,0,0,4.6673,4.6755,4.6736,4.6916,4.6988,4.7064,4.7156,4.7135,4.7227,4.7215,4.7224,4.7245,4.7406,4.7447,4.7361,4.7641,4.7559,4.758,4.7609,4.7635,4.7655,4.7641,4.7287,0,0,0,0,0,4.671,4.6816,4.6882,4.7034,4.7071,4.7108,4.7168,4.717,4.7245,4.7276,4.7326,4.7401,4.7504,4.7572,4.7671,4.7857,4.7874,4.7939,4.796,4.7977,4.7994,4.8093,4.8122,4.7813,4.7813,4.7813,0,0,4.679,4.6848,4.6914,4.7051,4.7107,4.7215,4.7134,4.7253,4.7333,4.7294,4.7445,4.7485,4.7569,4.7741,4.782,4.778,4.8083,4.7994,4.8007,4.8016,4.811,4.8139,4.8165,4.7823,4.7821,4.7819,0,0,4.699,4.7045,4.7176,4.7233,4.7318,4.7341,4.7372,4.7452,4.7476,4.7628,4.7599,4.7695,4.7874,4.7934,4.7988,4.8207,4.8181,4.824,4.8347,4.8443,4.8467,4.8489,4.8564,4.8592,4.8257,4.8258,4.8258,0,4.7078,4.724,4.7247,4.7367,4.7427,4.7395,4.7527,4.7583,4.7696,4.7738,4.7692,4.7913,4.7968,4.8152,4.8205,4.8251,4.8286,4.8229,4.8463,4.8485,4.8505,4.8577,4.8606,4.8264,4.8263,4.8263,4.8262,0,4.7343,4.7455,4.7551,4.7659,4.773,4.7856,4.7881,4.7953,4.7947,4.7975,4.8128,4.8193,4.8302,4.8346,4.8343,4.853,4.8502,4.846,4.8377,4.8541,4.8608,4.8636,4.8273,4.8271,4.8269,4.8267,0,0,4.7597,4.7705,4.774,4.7787,4.7878,4.7965,4.8088,4.8194,4.8254,4.8333,4.8436,4.8586,4.8547,4.8608,4.8611,4.8696,4.8862,4.8643,4.8645,4.8679,4.9068,4.9097,4.9129,4.8845,4.885,4.8855,4.906,0,4.7802,4.8018,4.8027,4.8224,4.8327,4.8297,4.8404,4.8471,4.8499,4.859,4.8622,4.8727,4.8669,4.8705,4.8787,4.8824,4.8939,4.881,4.894,4.8944,4.8917,4.9165,4.9198,4.9388,4.9087,4.9091,4.9095,0,4.8071,4.8156,4.8362,4.8435,4.8478,4.8575,4.8671,4.8759,4.8833,4.8848,4.8915,4.8905,4.903,4.8944,4.9116,4.9027,4.9081,4.9107,4.9115,4.9126,4.9028,4.9181,4.945,4.9477,4.9137,4.9134,4.9131,0,4.8232,4.8399,4.8543,4.8585,4.8674,4.8742,4.8782,4.8851,4.8913,4.8997,4.9037,4.9135,4.9189,4.9265,4.9281,4.9218,4.9453,4.9368,4.9467,4.9467,4.9517,4.9513,4.9796,4.9555,4.9555,4.9554,4.9554,0,4.8459,4.8587,4.8616,4.8705,4.8845,4.8854,4.8993,4.9028,4.9089,4.9184,4.9165,4.9254,4.9271,4.9364,4.9378,4.9516,4.9542,4.9556,4.9558,4.9557,4.9554,4.9591,4.9577,4.9562,4.956,4.9559,4.9558,0,4.8663,4.8688,4.8843,4.8914,4.8934,4.9035,4.9095,4.9179,4.9205,4.9324,4.9353,4.9393,4.9501,4.9525,4.9654,4.9663,4.9826,4.9817,4.9801,4.9799,4.9895,4.9885,5.0209,5.0251,4.9986,4.9988,4.999,0,4.8806,4.8902,4.8982,4.9043,4.9086,4.9186,4.9248,4.9259,4.9325,4.9415,4.9488,4.9594,4.9678,4.9851,4.9892,4.999,4.998,5.0087,4.9995,4.999,4.9979,4.9972,4.998,5.0104,5.0107,5.011,5.0112,0,4.9055,4.9061,4.9151,4.9246,4.932,4.9395,4.9466,4.9518,4.9539,4.9613,4.9722,4.9787,4.9917,5.0021,5.0118,5.0159,5.0139,5.014,5.0168,5.0166,5.0152,5.0158,4.9846,5.0133,5.013,5.0129,5.0128,5.0127,4.9231,4.9314,4.9382,4.9482,4.9536,4.9603,4.9684,4.9719,4.9809,4.9915,4.9916,5.0034,5.0104,5.0232,5.0279,5.0371,5.0338,5.0379,5.0388,5.0398,5.0405,5.0139,5.0389,5.0389,5.0388,5.0388,5.0387,0,4.9476,4.9518,4.961,4.9709,4.9787,4.976,4.9837,4.9904,5.0008,5.0074,5.0156,5.028,5.038,5.0428,5.0526,5.0591,5.0583,5.0616,5.061,5.0619,5.043,5.0395,5.062,5.062,5.062,5.062,5.062,5.062,4.9613,4.9751,4.9765,4.9929,4.9971,5.0085,5.013,5.0191,5.0243,5.0382,5.0464,5.0494,5.0552,5.0654,5.0744,5.0755,5.0791,5.0828,5.0835,5.0657,5.0633,5.0611,5.0578,5.0837,5.0837,5.1016,5.1017,5.1019]},{"header":{"parameterUnit":"m.s-1","parameterCategory":1,"la1":30.2991,"la2":30.254,"lo1":-89.0895,"lo2":-89.0444,"dy":0.0017,"dx":0.0017,"nx":28,"ny":28,"refTime":"2025-07-20T09:00:00:Z","depth":0,"parameterNumber":3,"parameterNumberName":"V-component_of_WINDS"},"data":[0,0,0,0,0,0,0,0,0,0,0,0,0,0,0,0,0,0,0,0,0,0,0,0,0,0,0,0,0,0,0,0,0,0,0,0,0,0,0,0,0,0,0,0,0,0,0,0,0,0,0,0,0,0,0,0,0,0,0.8643,0.8643,0,0.8669,0.8669,0.8669,0.8646,0.8645,0.8644,0.8643,0.8671,0.8672,0.8674,0,0,0,0,0,0,0,0,0,0,0,0,0,0.8573,0.8575,0.8643,0.8643,0.8644,0.8669,0.8669,0.867,0.8646,0.8645,0.8643,0.8642,0.867,0.8672,0.8674,0,0,0,0,0,0,0,0,0,0,0,0,0,0.8602,0.8575,0.8643,0.8635,0.8634,0.8669,0.8669,0.867,0.8646,0.8645,0.8643,0.8642,0.867,0.8672,0.8675,0.8719,0,0,0.8682,0.8683,0,0,0,0,0,0,0,0,0.86,0.8604,0.8636,0.8635,0.8635,0.8652,0.8655,0.8686,0.8646,0.8642,0.8643,0.8641,0.8666,0.8669,0.8677,0.872,0.8721,0.8682,0.8684,0.8685,0.8686,0,0,0,0,0,0,0,0.8598,0.8603,0.8653,0.8636,0.8636,0.863,0.8632,0.8661,0.8662,0.8642,0.864,0.8644,0.8666,0.8674,0.8677,0.8722,0.8682,0.8684,0.8686,0.8687,0.8801,0.8803,0,0,0,0,0,0,0.8597,0.8602,0.8652,0.8654,0.8614,0.8632,0.8635,0.8648,0.8661,0.8662,0.8645,0.8642,0.8671,0.8674,0.8678,0.873,0.8685,0.8687,0.8689,0.88,0.8801,0.8803,0,0,0,0,0,0,0.8596,0.8602,0.8651,0.8627,0.8633,0.8635,0.865,0.865,0.8659,0.8663,0.8664,0.8654,0.867,0.8675,0.8708,0.8731,0.8688,0.8691,0.8798,0.88,0.8802,0.8835,0,0,0,0,0,0,0.8594,0.8601,0.8619,0.8628,0.8635,0.8681,0.8652,0.8651,0.8663,0.866,0.8672,0.8673,0.8669,0.8705,0.8711,0.8734,0.8692,0.8796,0.8799,0.8802,0.8832,0.8838,0.8844,0,0,0,0,0,0.8591,0.8627,0.862,0.8626,0.8656,0.8683,0.8687,0.8682,0.8665,0.8682,0.8684,0.8672,0.8727,0.8709,0.8715,0.8739,0.8794,0.8798,0.8801,0.883,0.8837,0.8843,0,0,0,0,0,0,0.8622,0.8629,0.862,0.866,0.8671,0.8679,0.87,0.869,0.8707,0.8703,0.8697,0.8699,0.8735,0.874,0.8719,0.8782,0.8758,0.8763,0.8777,0.8784,0.879,0.8788,0.8695,0,0,0,0,0,0.8633,0.8654,0.8659,0.8694,0.8699,0.8699,0.871,0.8705,0.8717,0.8721,0.8727,0.8738,0.8758,0.8771,0.879,0.8832,0.8834,0.8852,0.8857,0.8862,0.8867,0.8888,0.8896,0.8815,0.8815,0.8815,0,0,0.8657,0.8663,0.8677,0.87,0.8708,0.8729,0.8703,0.8728,0.8744,0.8725,0.8757,0.8761,0.8774,0.8812,0.8829,0.8817,0.8889,0.8866,0.887,0.8872,0.8893,0.89,0.8907,0.8817,0.8817,0.8816,0,0,0.8711,0.8718,0.8747,0.8755,0.8767,0.8766,0.8773,0.8782,0.8783,0.8815,0.8801,0.882,0.8855,0.8864,0.8873,0.8928,0.8917,0.8934,0.8965,0.8986,0.8992,0.8998,0.9018,0.9025,0.8939,0.8939,0.8939,0,0.8739,0.8771,0.8764,0.8789,0.8799,0.8782,0.8811,0.8819,0.8837,0.8844,0.8831,0.8872,0.888,0.8919,0.8932,0.894,0.8948,0.8933,0.8992,0.8998,0.9003,0.9021,0.9029,0.8941,0.894,0.894,0.894,0,0.8805,0.8828,0.885,0.8866,0.8878,0.8906,0.8902,0.8916,0.8909,0.8909,0.8941,0.8949,0.8968,0.8977,0.8971,0.9015,0.9007,0.8993,0.8969,0.9013,0.903,0.9037,0.8944,0.8943,0.8942,0.8942,0,0,0.8881,0.8891,0.89,0.8906,0.8917,0.8934,0.896,0.8977,0.8989,0.9001,0.9022,0.9051,0.9037,0.9047,0.9042,0.9061,0.9103,0.9044,0.9044,0.9055,0.9152,0.9162,0.9171,0.9096,0.9097,0.9098,0.915,0,0.8936,0.8981,0.8973,0.9017,0.9037,0.9019,0.9042,0.9051,0.9051,0.9068,0.9069,0.9089,0.9069,0.9075,0.9093,0.9095,0.9123,0.9091,0.9116,0.9117,0.9114,0.918,0.9192,0.9241,0.9157,0.9158,0.9159,0,0.9006,0.9019,0.9064,0.907,0.9078,0.9099,0.9114,0.913,0.9139,0.9138,0.9149,0.9139,0.9165,0.914,0.9174,0.9153,0.9162,0.9164,0.9166,0.9169,0.9141,0.9185,0.9257,0.9264,0.917,0.9169,0.9168,0,0.9057,0.9086,0.9116,0.9122,0.913,0.9145,0.9148,0.9156,0.9167,0.918,0.9186,0.9203,0.9212,0.9224,0.9219,0.9201,0.9255,0.9229,0.9254,0.9255,0.9267,0.9267,0.9342,0.9273,0.9273,0.9273,0.9272,0,0.9119,0.9147,0.9139,0.9158,0.9188,0.9179,0.921,0.9212,0.9218,0.9237,0.9223,0.9241,0.9233,0.925,0.9246,0.9275,0.9279,0.9279,0.9278,0.9281,0.9281,0.9287,0.9284,0.9275,0.9274,0.9274,0.9273,0,0.9182,0.9177,0.9209,0.9213,0.9214,0.9237,0.924,0.9257,0.9256,0.9279,0.9284,0.9282,0.9302,0.9297,0.9319,0.9316,0.9353,0.9347,0.9349,0.9348,0.9373,0.9371,0.9457,0.9467,0.939,0.9391,0.9392,0,0.9222,0.9243,0.9248,0.9259,0.9264,0.9282,0.9292,0.9284,0.9295,0.9306,0.9322,0.934,0.9353,0.9385,0.9385,0.9401,0.9396,0.9425,0.9398,0.94,0.9396,0.9395,0.9397,0.943,0.9431,0.9432,0.9432,0,0.9293,0.929,0.9305,0.9319,0.9331,0.9342,0.9352,0.9362,0.9354,0.9367,0.9386,0.9396,0.9417,0.9435,0.9449,0.9453,0.9442,0.944,0.9447,0.945,0.9451,0.9451,0.9364,0.9439,0.9438,0.9438,0.9437,0.9437,0.9346,0.9363,0.9369,0.9386,0.9392,0.9401,0.9417,0.9417,0.9432,0.9448,0.9442,0.9464,0.9471,0.9488,0.9494,0.951,0.95,0.951,0.9512,0.9515,0.9518,0.9448,0.9513,0.9513,0.9513,0.9513,0.9512,0,0.9417,0.9419,0.9435,0.9448,0.9461,0.9448,0.9457,0.9469,0.9488,0.9495,0.9508,0.9529,0.9546,0.9547,0.9562,0.9575,0.957,0.958,0.9579,0.958,0.9526,0.9519,0.9583,0.9583,0.9583,0.9583,0.9583,0.9583,0.9455,0.9484,0.948,0.9511,0.9513,0.9534,0.954,0.9548,0.9553,0.9577,0.9591,0.9591,0.9595,0.961,0.9625,0.9624,0.9631,0.9642,0.964,0.9591,0.9584,0.9577,0.957,0.9644,0.9644,0.9692,0.9692,0.9693]}]]